GW6360 Weather Reports


Display with metric or nautical units.
time (UTC)temp
F
wind
direction
speed
MPH
gust
MPH
rain 1hr
in
rain 24hr
in
rain mn
in
humidity
%
barometer
mb
20260503041126 0 0.0 0.0 0.00 0.00 0.00 1010.1
20260503040624 0 0.0 0.0 0.00 0.00 0.00 1009.9
20260503040121 0 0.0 0.0 0.00 0.00 0.00 1010.1
20260503035617 0 0.0 0.0 0.00 0.04 0.04 1009.9
20260503035115 0 0.0 0.0 0.00 0.04 0.04 1009.9
20260503034612 0 0.0 0.0 0.00 0.04 0.04 1009.9
20260503034109 0 0.0 0.0 0.00 0.04 0.04 1010.0
20260503033607 0 0.0 0.0 0.00 0.04 0.04 1010.0
20260503033104 0 0.0 0.0 0.00 0.04 0.04 1010.2
20260503032602 0 0.0 0.0 0.00 0.04 0.04 1010.1
20260503032100 0 0.0 0.0 0.00 0.04 0.04 1010.0
20260503031558 0 0.0 0.0 0.00 0.04 0.04 1010.0
20260503031055 0 0.0 0.0 0.00 0.04 0.04 1010.0
20260503030550 0 0.0 0.0 0.00 0.04 0.04 1010.0
20260503030048 0 0.0 0.0 0.00 0.04 0.04 1010.1
20260503025544 0 0.0 0.0 0.00 0.04 0.04 1010.0
20260503025043 0 0.0 0.0 0.00 0.04 0.04 1010.0
20260503024538 0 0.0 0.0 0.00 0.04 0.04 1010.1
20260503024036 0 0.0 0.0 0.00 0.04 0.04 1009.9
20260503023532 0 0.0 0.0 0.00 0.04 0.04 1010.0
20260503023030 0 0.0 0.0 0.00 0.04 0.04 1010.0
20260503022526 0 0.0 0.0 0.00 0.04 0.04 1010.1
20260503022021 0 0.0 0.0 0.00 0.04 0.04 1010.1
20260503021518 0 0.0 0.0 0.00 0.04 0.04 1010.2
20260503021015 0 0.0 0.0 0.00 0.04 0.04 1010.3
20260503020512 0 0.0 0.0 0.00 0.04 0.04 1010.3
20260503020009 0 0.0 0.0 0.00 0.04 0.04 1010.5
20260503015505 0 0.0 0.0 0.00 0.04 0.04 1010.5
20260503015002 0 0.0 0.0 0.00 0.04 0.04 1010.5
20260503014458 0 0.0 0.0 0.00 0.04 0.04 1010.4
20260503013957 0 0.0 0.0 0.00 0.04 0.04 1010.5
20260503013453 0 0.0 0.0 0.00 0.04 0.04 1010.5
20260503012950 0 0.0 0.0 0.00 0.04 0.04 1010.6
20260503012449 0 0.0 0.0 0.00 0.04 0.04 1010.5
20260503011944 0 0.0 0.0 0.02 0.04 0.04 1010.4
20260503011441 0 0.0 0.0 0.02 0.04 0.04 1010.4
20260503010938 0 0.0 0.0 0.00 0.03 0.03 1010.5
20260503010435 0 0.0 0.0 0.00 0.03 0.03 1010.3
20260503005932 0 0.0 0.0 0.00 0.03 0.03 1010.3
20260503005430 0 0.0 0.0 0.00 0.03 0.03 1010.3
20260503004926 0 0.0 0.0 0.02 0.03 0.03 1010.2
20260503004423 0 0.0 0.0 0.02 0.03 0.03 1010.3
20260503003921 0 0.0 0.0 0.00 0.03 0.03 1010.3
20260503003417 0 0.0 0.0 0.00 0.03 0.03 1010.3
20260503002915 0 0.0 0.0 0.00 0.03 0.03 1010.1
20260503002412 0 0.0 0.0 0.02 0.03 0.03 1010.2
20260503001908 0 0.0 0.0 0.02 0.03 0.03 1010.3
20260503001404 0 0.0 0.0 0.00 0.02 0.02 1010.3
20260503000902 0 0.0 0.0 0.00 0.02 0.02 1010.2
20260503000400 0 0.0 0.0 0.02 0.02 0.02 1010.2
20260502235856 0 0.0 0.0 0.09 0.02 0.02 1010.4
20260502235353 0 0.0 0.0 0.07 0.02 0.02 1010.3
20260502234850 0 0.0 0.0 0.02 0.01 0.01 1010.6
20260502234347 0 0.0 0.0 0.00 0.00 0.00 1010.6
20260502233844 0 0.0 0.0 0.00 0.00 0.00 1010.2
20260502233339 0 0.0 0.0 0.02 0.00 0.00 1010.2
20260502232837 0 0.0 0.0 0.02 0.00 0.00 1010.4
20260502232333 0 0.0 0.0 0.00 0.00 0.00 1010.3
20260502231829 0 0.0 0.0 0.00 0.00 0.00 1010.5
20260502231327 0 0.0 0.0 0.00 0.00 0.00 1010.4
20260502230825 0 0.0 0.0 0.00 0.00 0.00 1010.3
20260502230323 0 0.0 0.0 0.00 0.00 0.00 1010.4
20260502225820 0 0.0 0.0 0.00 0.00 0.00 1010.3
20260502225317 0 0.0 0.0 0.00 0.00 0.00 1010.4
20260502224813 0 0.0 0.0 0.00 0.00 0.00 1010.5
20260502224309 0 0.0 0.0 0.00 0.00 0.00 1010.5
20260502223807 0 0.0 0.0 0.00 0.00 0.00 1010.1
20260502223305 0 0.0 0.0 0.00 0.00 0.00 1010.3
20260502222802 0 0.0 0.0 0.00 0.00 0.00 1010.2
20260502222300 0 0.0 0.0 0.00 0.00 0.00 1010.0
20260502221755 0 0.0 0.0 0.00 0.00 0.00 1010.2
20260502221252 0 0.0 0.0 0.00 0.00 0.00 1010.3
20260502220749 0 0.0 0.0 0.00 0.00 0.00 1010.4
20260502220244 0 0.0 0.0 0.00 0.00 0.00 1010.1
20260502215741 0 0.0 0.0 0.00 0.00 0.00 1010.1
20260502215239 0 0.0 0.0 0.00 0.00 0.00 1010.1
20260502214736 0 0.0 0.0 0.00 0.00 0.00 1010.2
20260502214234 0 0.0 0.0 0.00 0.00 0.00 1010.2
20260502213730 0 0.0 0.0 0.00 0.00 0.00 1010.2
20260502213227 0 0.0 0.0 0.00 0.00 0.00 1010.1
20260502212726 0 0.0 0.0 0.00 0.00 0.00 1010.3
20260502212224 0 0.0 0.0 0.00 0.00 0.00 1010.3
20260502211719 0 0.0 0.0 0.00 0.00 0.00 1010.2
20260502211216 0 0.0 0.0 0.00 0.00 0.00 1010.1
20260502210713 0 0.0 0.0 0.00 0.00 0.00 1010.3
20260502210211 0 0.0 0.0 0.00 0.00 0.00 1010.3
20260502205708 0 0.0 0.0 0.00 0.00 0.00 1010.4
20260502205204 0 0.0 0.0 0.00 0.00 0.00 1010.4
20260502204701 0 0.0 0.0 0.00 0.00 0.00 1010.4
20260502204159 0 0.0 0.0 0.00 0.00 0.00 1010.3
20260502203656 0 0.0 0.0 0.00 0.00 0.00 1010.6
20260502203154 0 0.0 0.0 0.00 0.00 0.00 1010.6
20260502202648 0 0.0 0.0 0.00 0.00 0.00 1010.5
20260502202147 0 0.0 0.0 0.00 0.00 0.00 1010.8
20260502201643 0 0.0 0.0 0.00 0.00 0.00 1010.7
20260502201140 0 0.0 0.0 0.00 0.00 0.00 1010.6
20260502200636 0 0.0 0.0 0.00 0.00 0.00 1010.8
20260502200133 0 0.0 0.0 0.00 0.00 0.00 1010.7
20260502195631 0 0.0 0.0 0.00 0.00 0.00 1010.7
20260502195126 0 0.0 0.0 0.00 0.00 0.00 1010.8
20260502194624 0 0.0 0.0 0.00 0.00 0.00 1010.7
20260502194120 0 0.0 0.0 0.00 0.00 0.00 1011.1
20260502193617 0 0.0 0.0 0.00 0.00 0.00 1011.1
20260502193114 0 0.0 0.0 0.00 0.00 0.00 1011.0
20260502192609 0 0.0 0.0 0.00 0.00 0.00 1010.9
20260502192107 0 0.0 0.0 0.00 0.00 0.00 1011.1
20260502191603 0 0.0 0.0 0.00 0.00 0.00 1011.3
20260502191101 0 0.0 0.0 0.00 0.00 0.00 1011.4
20260502190559 0 0.0 0.0 0.00 0.00 0.00 1011.5
20260502190055 0 0.0 0.0 0.00 0.00 0.00 1011.6
20260502185550 0 0.0 0.0 0.00 0.00 0.00 1011.6
20260502185048 0 0.0 0.0 0.00 0.00 0.00 1011.7
20260502184543 0 0.0 0.0 0.00 0.00 0.00 1011.7
20260502184039 0 0.0 0.0 0.00 0.00 0.00 1011.5
20260502183536 0 0.0 0.0 0.00 0.00 0.00 1011.7
20260502183032 0 0.0 0.0 0.00 0.00 0.00 1011.8
20260502182527 0 0.0 0.0 0.00 0.00 0.00 1011.7
20260502182023 0 0.0 0.0 0.00 0.00 0.00 1011.6
20260502181521 0 0.0 0.0 0.00 0.00 0.00 1011.6
20260502181020 0 0.0 0.0 0.00 0.00 0.00 1011.6
20260502180516 0 0.0 0.0 0.00 0.00 0.00 1011.9
20260502170436 0 0.0 0.0 0.00 0.00 0.00 1011.7
20260502163919 0 0.0 0.0 0.00 0.00 0.00 1012.2
20260502163415 0 0.0 0.0 0.00 0.00 0.00 1011.8
20260502162913 0 0.0 0.0 0.00 0.00 0.00 1011.8
20260502162410 0 0.0 0.0 0.00 0.00 0.00 1012.0
20260502161907 0 0.0 0.0 0.00 0.00 0.00 1011.9
20260502161403 0 0.0 0.0 0.00 0.00 0.00 1012.0
20260502160901 0 0.0 0.0 0.00 0.00 0.00 1011.9
20260502160359 0 0.0 0.0 0.00 0.00 0.00 1012.0
20260502152334 51 156 11.0 13.0 0.00 0.00 0.00 83 1012.5
20260502151832 51 156 11.0 13.0 0.00 0.00 0.00 83 1012.5
20260502151328 51 156 11.0 13.0 0.00 0.00 0.00 83 1012.7
20260502150826 51 156 11.0 13.0 0.00 0.00 0.00 83 1012.3
20260502150322 51 156 11.0 13.0 0.00 0.00 0.00 83 1012.2
20260502130710 50 198 8.0 9.0 0.00 0.00 0.00 86 1012.7
20260502130208 50 198 8.0 9.0 0.00 0.00 0.00 86 1012.6
20260502123654 50 204 10.0 10.0 0.00 0.00 0.00 85 1012.8
20260502123150 50 204 10.0 10.0 0.00 0.00 0.00 85 1012.9
20260502122646 50 191 8.0 13.0 0.00 0.00 0.00 84 1012.9
20260502122143 50 191 8.0 13.0 0.00 0.00 0.00 84 1012.7
20260502121642 50 191 8.0 13.0 0.00 0.00 0.00 84 1012.6
20260502121139 50 191 8.0 13.0 0.00 0.00 0.00 84 1012.7
20260502120635 50 191 8.0 13.0 0.00 0.00 0.00 84 1012.6
20260502120132 50 191 8.0 13.0 0.00 0.00 0.00 84 1012.7
20260502115630 50 191 8.0 13.0 0.00 0.00 0.00 84 1012.6
20260502115126 50 191 8.0 13.0 0.00 0.00 0.00 84 1012.5
20260502114622 50 191 8.0 13.0 0.00 0.00 0.00 84 1012.7
20260502114119 50 187 6.0 9.0 0.00 0.00 0.00 85 1012.5
20260502113617 50 192 9.0 10.0 0.00 0.00 0.00 84 1012.6
20260502113115 49 186 8.0 10.0 0.00 0.00 0.00 84 1012.5
20260502112612 49 181 11.0 12.0 0.00 0.00 0.00 84 1012.5
20260502112110 49 181 11.0 12.0 0.00 0.00 0.00 84 1012.5
20260502111607 49 176 4.0 10.0 0.00 0.00 0.00 84 1012.4
20260502111104 49 179 9.0 10.0 0.00 0.00 0.00 84 1012.4
20260502110602 49 181 7.0 9.0 0.00 0.00 0.00 85 1012.5
20260502110059 49 181 7.0 9.0 0.00 0.00 0.00 85 1012.3
20260502105556 49 172 8.0 11.0 0.00 0.00 0.00 85 1012.4
20260502105054 49 182 6.0 8.0 0.00 0.00 0.00 85 1012.4
20260502104550 49 194 7.0 10.0 0.00 0.00 0.00 85 1012.5
20260502104048 49 161 4.0 6.0 0.00 0.00 0.00 85 1012.3
20260502103546 0 0.0 0.0 0.00 0.00 0.00 1012.4
20260502103044 0 0.0 0.0 0.00 0.00 0.00 1012.1
20260502102540 0 0.0 0.0 0.00 0.00 0.00 1012.0
20260502102037 0 0.0 0.0 0.00 0.00 0.00 1012.1
20260502101535 0 0.0 0.0 0.00 0.00 0.00 1012.0
20260502101033 0 0.0 0.0 0.00 0.00 0.00 1011.9
20260502100531 0 0.0 0.0 0.00 0.00 0.00 1012.1
20260502091506 0 0.0 0.0 0.00 0.00 0.00 1012.1
20260502091003 0 0.0 0.0 0.00 0.00 0.00 1012.1
20260502090500 0 0.0 0.0 0.00 0.00 0.00 1011.9
20260502071354 0 0.0 0.0 0.00 0.00 0.00 1011.8
20260502070853 0 0.0 0.0 0.00 0.00 0.00 1011.9
20260502070350 0 0.0 0.0 0.00 0.00 0.00 1012.1
20260502065849 0 0.0 0.0 0.00 0.00 0.00 1011.9
20260502065346 0 0.0 0.0 0.00 0.00 0.00 1011.9
20260502064844 0 0.0 0.0 0.00 0.00 0.00 1011.9
20260502064342 0 0.0 0.0 0.00 0.00 0.00 1011.8
20260502063839 0 0.0 0.0 0.00 0.00 0.00 1012.0
20260502063336 0 0.0 0.0 0.00 0.00 0.00 1011.9
20260502062834 0 0.0 0.0 0.00 0.00 0.00 1011.8
20260502062331 0 0.0 0.0 0.00 0.00 0.00 1012.0
20260502061830 0 0.0 0.0 0.00 0.00 0.00 1012.0
20260502061327 0 0.0 0.0 0.00 0.00 0.00 1012.1
20260502060823 0 0.0 0.0 0.00 0.00 0.00 1012.1
20260502060318 0 0.0 0.0 0.00 0.00 0.00 1012.3
20260502055816 0 0.0 0.0 0.00 0.00 0.00 1012.0
20260502055314 0 0.0 0.0 0.00 0.00 0.00 1012.2
20260502054813 0 0.0 0.0 0.00 0.00 0.00 1012.3
20260502054310 0 0.0 0.0 0.00 0.00 0.00 1012.2
20260502053808 0 0.0 0.0 0.00 0.00 0.00 1012.2
20260502053305 0 0.0 0.0 0.00 0.00 0.00 1012.3
20260502052802 0 0.0 0.0 0.00 0.00 0.00 1012.4
20260502052300 0 0.0 0.0 0.00 0.00 0.00 1012.4
20260502051758 0 0.0 0.0 0.00 0.00 0.00 1012.4
20260502051257 0 0.0 0.0 0.00 0.00 0.00 1012.5
20260502050752 0 0.0 0.0 0.00 0.00 0.00 1012.5
20260502050248 0 0.0 0.0 0.00 0.00 0.00 1012.4
20260502045746 0 0.0 0.0 0.00 0.00 0.00 1012.3
20260502045242 0 0.0 0.0 0.00 0.00 0.00 1012.4
20260502044739 0 0.0 0.0 0.00 0.00 0.00 1012.3
20260502044235 0 0.0 0.0 0.00 0.00 0.00 1012.3
20260502043733 0 0.0 0.0 0.00 0.00 0.00 1012.3
20260502043231 0 0.0 0.0 0.00 0.00 0.00 1012.3
20260502042730 0 0.0 0.0 0.00 0.00 0.00 1012.4
20260502042227 0 0.0 0.0 0.00 0.00 0.00 1012.2
20260502041725 0 0.0 0.0 0.00 0.00 0.00 1012.3
20260502041222 0 0.0 0.0 0.00 0.00 0.00 1012.4